{"data":{"norad_id":66888,"epoch":"2026-09-19T21:16:07.222080Z","epoch_age_seconds":138044,"freshness":"FRESH","line1":"1 66888U 25283L   26262.88619470  .00021311  00000+0  63995-3 0  9999","line2":"2 66888  53.1594 198.8050 0002394  82.9532 277.1743 15.34404278 45629","mean_motion":15.34404278,"eccentricity":0.0002394,"inclination_deg":53.1594,"raan_deg":198.805,"arg_perigee_deg":82.9532,"mean_anomaly_deg":277.1743,"bstar":0.00063995,"rev_number":4562,"period_min":93.847496428839,"perigee_km":461.05283100959,"apogee_km":464.32821922861,"semimajor_km":6840.8275251191,"source":"CELESTRAK","updated_at":"2026-09-21T09:00:36.034004Z"}}